sat.trackr.live / text

‹ back to catalog

STARLINK-35850

NORAD 66352 · 2025-254E

PAYLOAD ACTIVE UNKNOWN

§ Identity

Operator
Country
US
Launch date
2025-11-06
Launch site
AFWTR
Launch vehicle
Mass (kg)
RCS (m²)

Purposes: comms

External: N2YO · Heavens-Above · Gunter

§ Orbital elements

Epoch: 2026-05-24T17:47:27.246048Z

Period
94.11 min
Inclination
53.1585°
Eccentricity
0.0001219
Mean motion
15.30190555 rev/d
Perigee alt
474.4 km
Apogee alt
476.1 km
Semi-major
6,853.4 km
B*
5.0606e-5
RAAN
238.9050°
Arg perigee
82.6809°
Mean anomaly
277.4330°
Rev number
3,062

§ Raw data

STARLINK-358501 66352U 25254E   26144.74128757  .00001139  00000+0  50606-4 0  99922 66352  53.1585 238.9050 0001219  82.6809 277.4330 15.30190555 30625

JSON: /api/v1/satellites/66352 · /tle

For live sub-satellite position, see the globe view (requires WebGL).

§ Visibility from observer

Set your observer location to see the next 7 days of passes ≥ 10°. The values pass through the URL so the page stays shareable.

No JS? Fill the form by hand. The geolocation button needs JavaScript.